This is the latest recevied weather packets stored in our database for station/object IZ1UQG-1. If no packets are shown the sender has not sent any weather packets the latest 10 day(s).
| Time | Temp. | Humidity | Pressure | Rain* | Wind** | Luminosity | Snow |
|---|---|---|---|---|---|---|---|
| 1777450748 | 15.56° C | 81% | 1017.9 hPa | 183.9 mm | - | - | - |
| 1777450448 | 15.56° C | 81% | 1017.7 hPa | 183.39 mm | - | - | - |
| 1777450148 | 15.56° C | 81% | 1017.9 hPa | 155.96 mm | - | - | - |
| 1777449848 | 15.56° C | 81% | 1017.9 hPa | 189.74 mm | - | - | - |
| 1777449548 | 15.56° C | 81% | 1017.9 hPa | 161.54 mm | - | - | - |
| 1777449248 | 15° C | 81% | 1017.9 hPa | 247.65 mm | - | - | - |
| 1777448948 | 15° C | 81% | 1018 hPa | 219.71 mm | - | - | - |
| 1777448648 | 15° C | 81% | 1017.8 hPa | 188.98 mm | - | - | - |
| 1777448348 | 15° C | 81% | 1017.8 hPa | 224.79 mm | - | - | - |
| 1777448048 | 15° C | 81% | 1017.8 hPa | 7.11 mm | - | - | - |
| 1777447748 | 15° C | 81% | 1017.8 hPa | 213.87 mm | - | - | - |
| 1777447448 | 15° C | 81% | 1017.8 hPa | 156.97 mm | - | - | - |
| 1777447148 | 15° C | 81% | 1017.8 hPa | 148.08 mm | - | - | - |
| 1777446848 | 15° C | 81% | 1017.8 hPa | 248.16 mm | - | - | - |
| 1777446548 | 15° C | 81% | 1017.8 hPa | 248.67 mm | - | - | - |
| 1777446248 | 15° C | 81% | 1017.7 hPa | 236.73 mm | - | - | - |
| 1777445948 | 15° C | 81% | 1017.7 hPa | 166.88 mm | - | - | - |
| 1777445648 | 15° C | 81% | 1017.8 hPa | 84.33 mm | - | - | - |
| 1777445348 | 15° C | 81% | 1017.7 hPa | 64.01 mm | - | - | - |
| 1777445048 | 15° C | 81% | 1017.7 hPa | 71.37 mm | - | - | - |
| 1777444748 | 15° C | 81% | 1017.6 hPa | 251.71 mm | - | - | - |
| 1777444449 | 15° C | 81% | 1017.5 hPa | 101.85 mm | - | - | - |
| 1777444148 | 15° C | 81% | 1017.6 hPa | 109.73 mm | - | - | - |
| 1777443849 | 15° C | 81% | 1017.5 hPa | 127.25 mm | - | - | - |
| 1777443548 | 15° C | 80% | 1017.5 hPa | 28.96 mm | - | - | - |
* Rain latest hour (hover to see other rain measurements)
** Current wind speed in m/s (hover to see current wind gust speed)